| time (UTC) | temp F | wind direction | speed MPH | gust MPH | rain 1hr in | rain 24hr in | rain mn in | humidity % | barometer mb |
| 20260504021741 | 42 | 219 | 0.0 | 0.0 | 0.00 | 0.00 | 0.00 | ||
| 20260504021237 | 42 | 219 | 0.0 | 0.0 | 0.00 | 0.00 | 0.00 | ||
| 20260504020732 | 41 | 219 | 0.0 | 0.0 | 0.00 | 0.00 | 0.00 | ||
| 20260504020227 | 43 | 219 | 0.0 | 0.0 | 0.00 | 0.00 | 0.00 | ||
| 20260504015722 | 42 | 219 | 0.0 | 0.0 | 0.00 | 0.00 | 0.00 | ||
| 20260504015217 | 43 | 219 | 0.0 | 0.0 | 0.00 | 0.00 | 0.00 | ||
| 20260504014709 | 43 | 219 | 0.0 | 0.0 | 0.00 | 0.00 | 0.00 | ||
| 20260504014204 | 43 | 219 | 0.0 | 0.0 | 0.00 | 0.00 | 0.00 | ||
| 20260504013659 | 44 | 219 | 0.0 | 0.0 | 0.00 | 0.00 | 0.00 | ||
| 20260504013154 | 44 | 219 | 0.0 | 0.0 | 0.00 | 0.00 | 0.00 | ||
| 20260504012144 | 45 | 219 | 0.0 | 0.0 | 0.00 | 0.00 | 0.00 | ||
| 20260504011131 | 45 | 219 | 0.0 | 0.0 | 0.00 | 0.00 | 0.00 | ||
| 20260504010626 | 47 | 219 | 0.0 | 0.0 | 0.00 | 0.00 | 0.00 | ||
| 20260504010121 | 47 | 219 | 0.0 | 0.0 | 0.00 | 0.00 | 0.00 | ||
| 20260504005616 | 46 | 219 | 0.0 | 0.0 | 0.00 | 0.00 | 0.00 | ||
| 20260504005111 | 47 | 219 | 0.0 | 0.0 | 0.00 | 0.00 | 0.00 | ||
| 20260504004603 | 47 | 219 | 0.0 | 0.0 | 0.00 | 0.00 | 0.00 | ||
| 20260504004058 | 49 | 219 | 0.0 | 0.0 | 0.00 | 0.00 | 0.00 | ||
| 20260504003553 | 49 | 219 | 0.0 | 0.0 | 0.00 | 0.00 | 0.00 | ||
| 20260504003048 | 49 | 219 | 0.0 | 0.0 | 0.00 | 0.00 | 0.00 | ||
| 20260504002543 | 50 | 219 | 0.0 | 0.0 | 0.00 | 0.00 | 0.00 | ||
| 20260504002039 | 51 | 219 | 0.0 | 0.0 | 0.00 | 0.00 | 0.00 | ||
| 20260504001531 | 53 | 219 | 0.0 | 0.0 | 0.00 | 0.00 | 0.00 | ||
| 20260504001026 | 53 | 219 | 0.0 | 0.0 | 0.00 | 0.00 | 0.00 | ||
| 20260504000521 | 53 | 219 | 0.0 | 0.0 | 0.00 | 0.00 | 0.00 | ||
| 20260504000016 | 55 | 219 | 0.0 | 0.0 | 0.00 | 0.00 | 0.00 | ||
| 20260503235512 | 56 | 219 | 0.0 | 0.0 | 0.00 | 0.00 | 0.00 | ||
| 20260503235007 | 56 | 219 | 0.0 | 3.0 | 0.00 | 0.00 | 0.00 | ||
| 20260503233954 | 58 | 266 | 4.0 | 5.0 | 0.00 | 0.00 | 0.00 | ||
| 20260503233449 | 60 | 280 | 2.0 | 7.0 | 0.00 | 0.00 | 0.00 | ||
| 20260503232945 | 60 | 266 | 3.0 | 8.0 | 0.00 | 0.00 | 0.00 | ||
| 20260503232440 | 61 | 263 | 2.0 | 9.0 | 0.00 | 0.00 | 0.00 | ||
| 20260503231935 | 62 | 285 | 4.0 | 10.0 | 0.00 | 0.00 | 0.00 | ||
| 20260503231428 | 61 | 291 | 8.0 | 10.0 | 0.00 | 0.00 | 0.00 | ||
| 20260503230923 | 62 | 269 | 4.0 | 10.0 | 0.00 | 0.00 | 0.00 | ||
| 20260503230418 | 62 | 277 | 8.0 | 15.0 | 0.00 | 0.00 | 0.00 | ||
| 20260503225914 | 62 | 287 | 7.0 | 11.0 | 0.00 | 0.00 | 0.00 | ||
| 20260503225409 | 63 | 259 | 8.0 | 11.0 | 0.00 | 0.00 | 0.00 | ||
| 20260503224903 | 63 | 302 | 6.0 | 12.0 | 0.00 | 0.00 | 0.00 | ||
| 20260503224356 | 65 | 291 | 6.0 | 9.0 | 0.00 | 0.00 | 0.00 | ||
| 20260503223851 | 64 | 266 | 5.0 | 10.0 | 0.00 | 0.00 | 0.00 | ||
| 20260503223346 | 64 | 250 | 5.0 | 13.0 | 0.00 | 0.00 | 0.00 | ||
| 20260503222841 | 64 | 290 | 3.0 | 10.0 | 0.00 | 0.00 | 0.00 | ||
| 20260503222336 | 66 | 253 | 7.0 | 13.0 | 0.00 | 0.00 | 0.00 | ||
| 20260503221832 | 67 | 294 | 5.0 | 6.0 | 0.00 | 0.00 | 0.00 | ||
| 20260503221324 | 66 | 309 | 5.0 | 12.0 | 0.00 | 0.00 | 0.00 | ||
| 20260503220820 | 65 | 274 | 2.0 | 8.0 | 0.00 | 0.00 | 0.00 | ||
| 20260503220316 | 67 | 266 | 5.0 | 10.0 | 0.00 | 0.00 | 0.00 | ||
| 20260503215811 | 66 | 294 | 6.0 | 18.0 | 0.00 | 0.00 | 0.00 | ||
| 20260503215306 | 65 | 308 | 3.0 | 15.0 | 0.00 | 0.00 | 0.00 | ||
| 20260503214254 | 66 | 274 | 3.0 | 10.0 | 0.00 | 0.00 | 0.00 | ||
| 20260503213749 | 64 | 252 | 8.0 | 14.0 | 0.00 | 0.00 | 0.00 | ||
| 20260503213245 | 66 | 257 | 12.0 | 15.0 | 0.00 | 0.00 | 0.00 | ||
| 20260503212740 | 67 | 264 | 2.0 | 12.0 | 0.00 | 0.00 | 0.00 | ||
| 20260503212236 | 66 | 274 | 12.0 | 19.0 | 0.00 | 0.00 | 0.00 | ||
| 20260503211731 | 65 | 236 | 18.0 | 16.0 | 0.00 | 0.00 | 0.00 | ||
| 20260503211224 | 66 | 273 | 14.0 | 15.0 | 0.00 | 0.00 | 0.00 | ||
| 20260503210719 | 67 | 248 | 5.0 | 10.0 | 0.00 | 0.00 | 0.00 | ||
| 20260503210215 | 66 | 280 | 8.0 | 14.0 | 0.00 | 0.00 | 0.00 | ||
| 20260503205710 | 69 | 267 | 11.0 | 10.0 | 0.00 | 0.00 | 0.00 | ||
| 20260503205206 | 67 | 11 | 1.0 | 12.0 | 0.00 | 0.00 | 0.00 | ||
| 20260503204701 | 67 | 269 | 12.0 | 14.0 | 0.00 | 0.00 | 0.00 | ||
| 20260503204154 | 66 | 312 | 4.0 | 13.0 | 0.00 | 0.00 | 0.00 | ||
| 20260503203649 | 65 | 276 | 7.0 | 16.0 | 0.00 | 0.00 | 0.00 | ||
| 20260503203144 | 66 | 281 | 13.0 | 18.0 | 0.00 | 0.00 | 0.00 | ||
| 20260503202135 | 68 | 260 | 8.0 | 13.0 | 0.00 | 0.00 | 0.00 | ||
| 20260503201631 | 68 | 314 | 3.0 | 9.0 | 0.00 | 0.00 | 0.00 | ||
| 20260503201123 | 67 | 308 | 7.0 | 12.0 | 0.00 | 0.00 | 0.00 | ||
| 20260503200619 | 64 | 255 | 10.0 | 11.0 | 0.00 | 0.00 | 0.00 | ||
| 20260503200114 | 65 | 277 | 7.0 | 18.0 | 0.00 | 0.00 | 0.00 | ||
| 20260503195610 | 65 | 264 | 10.0 | 13.0 | 0.00 | 0.00 | 0.00 | ||
| 20260503195105 | 66 | 233 | 11.0 | 10.0 | 0.00 | 0.00 | 0.00 | ||
| 20260503194601 | 67 | 215 | 2.0 | 15.0 | 0.00 | 0.00 | 0.00 | ||
| 20260503194053 | 68 | 288 | 2.0 | 13.0 | 0.00 | 0.00 | 0.00 | ||
| 20260503193548 | 65 | 323 | 5.0 | 21.0 | 0.00 | 0.00 | 0.00 | ||
| 20260503193044 | 62 | 283 | 8.0 | 18.0 | 0.00 | 0.00 | 0.00 | ||
| 20260503192539 | 64 | 249 | 12.0 | 20.0 | 0.00 | 0.00 | 0.00 | ||
| 20260503192034 | 65 | 284 | 9.0 | 20.0 | 0.00 | 0.00 | 0.00 | ||
| 20260503191530 | 66 | 357 | 1.0 | 19.0 | 0.00 | 0.00 | 0.00 | ||
| 20260503191022 | 65 | 245 | 6.0 | 15.0 | 0.00 | 0.00 | 0.00 | ||
| 20260503190518 | 67 | 297 | 8.0 | 20.0 | 0.00 | 0.00 | 0.00 | ||
| 20260503190013 | 64 | 300 | 7.0 | 12.0 | 0.00 | 0.00 | 0.00 | ||
| 20260503185508 | 65 | 287 | 6.0 | 11.0 | 0.00 | 0.00 | 0.00 | ||
| 20260503185004 | 68 | 253 | 8.0 | 12.0 | 0.00 | 0.00 | 0.00 | ||
| 20260503183952 | 65 | 345 | 12.0 | 17.0 | 0.00 | 0.00 | 0.00 | ||
| 20260503183447 | 62 | 285 | 11.0 | 23.0 | 0.00 | 0.00 | 0.00 | ||
| 20260503182942 | 62 | 300 | 4.0 | 25.0 | 0.00 | 0.00 | 0.00 | ||
| 20260503182438 | 65 | 287 | 10.0 | 13.0 | 0.00 | 0.00 | 0.00 | ||
| 20260503181933 | 63 | 297 | 5.0 | 20.0 | 0.00 | 0.00 | 0.00 | ||
| 20260503181429 | 62 | 266 | 11.0 | 16.0 | 0.00 | 0.00 | 0.00 | ||
| 20260503180921 | 62 | 318 | 5.0 | 21.0 | 0.00 | 0.00 | 0.00 | ||
| 20260503180416 | 60 | 298 | 12.0 | 26.0 | 0.00 | 0.00 | 0.00 | ||
| 20260503175911 | 60 | 264 | 13.0 | 18.0 | 0.00 | 0.00 | 0.00 | ||
| 20260503175407 | 59 | 197 | 11.0 | 21.0 | 0.00 | 0.00 | 0.00 | ||
| 20260503174902 | 62 | 280 | 13.0 | 16.0 | 0.00 | 0.00 | 0.00 | ||
| 20260503174357 | 59 | 283 | 6.0 | 13.0 | 0.00 | 0.00 | 0.00 | ||
| 20260503173850 | 61 | 226 | 8.0 | 15.0 | 0.00 | 0.00 | 0.00 | ||
| 20260503173345 | 60 | 284 | 8.0 | 16.0 | 0.00 | 0.00 | 0.00 | ||
| 20260503172840 | 59 | 277 | 11.0 | 18.0 | 0.00 | 0.00 | 0.00 | ||
| 20260503172336 | 62 | 295 | 11.0 | 16.0 | 0.00 | 0.00 | 0.00 | ||
| 20260503171830 | 59 | 271 | 10.0 | 20.0 | 0.00 | 0.00 | 0.00 | ||
| 20260503171325 | 61 | 308 | 11.0 | 16.0 | 0.00 | 0.00 | 0.00 | ||
| 20260503170818 | 62 | 297 | 0.0 | 10.0 | 0.00 | 0.00 | 0.00 | ||
| 20260503170313 | 58 | 24 | 1.0 | 22.0 | 0.00 | 0.00 | 0.00 | ||
| 20260503160210 | 56 | 345 | 3.0 | 10.0 | 0.00 | 0.00 | 0.00 | ||
| 20260503150612 | 57 | 290 | 5.0 | 16.0 | 0.00 | 0.00 | 0.00 | ||
| 20260503150107 | 56 | 297 | 5.0 | 16.0 | 0.00 | 0.00 | 0.00 | ||
| 20260503131417 | 46 | 284 | 6.0 | 21.0 | 0.00 | 0.00 | 0.00 | ||
| 20260503130912 | 46 | 264 | 17.0 | 22.0 | 0.00 | 0.00 | 0.00 | ||
| 20260503130404 | 46 | 288 | 17.0 | 22.0 | 0.00 | 0.00 | 0.00 | ||
| 20260503110657 | 39 | 277 | 2.0 | 12.0 | 0.00 | 0.00 | 0.00 | ||
| 20260503110149 | 40 | 309 | 8.0 | 10.0 | 0.00 | 0.00 | 0.00 | ||
| 20260503090440 | 37 | 278 | 2.0 | 7.0 | 0.00 | 0.00 | 0.00 | ||
| 20260503081343 | 40 | 266 | 8.0 | 9.0 | 0.00 | 0.00 | 0.00 | ||
| 20260503080838 | 40 | 298 | 5.0 | 8.0 | 0.00 | 0.00 | 0.00 | ||
| 20260503080333 | 40 | 321 | 1.0 | 9.0 | 0.00 | 0.00 | 0.00 | ||
| 20260503072752 | 41 | 346 | 1.0 | 8.0 | 0.00 | 0.00 | 0.00 | ||
| 20260503072246 | 41 | 288 | 4.0 | 9.0 | 0.00 | 0.00 | 0.00 | ||
| 20260503071741 | 41 | 308 | 2.0 | 6.0 | 0.00 | 0.00 | 0.00 | ||
| 20260503071236 | 42 | 294 | 2.0 | 6.0 | 0.00 | 0.00 | 0.00 | ||
| 20260503070226 | 42 | 302 | 4.0 | 6.0 | 0.00 | 0.00 | 0.00 | ||
| 20260503060118 | 38 | 294 | 3.0 | 4.0 | 0.00 | 0.00 | 0.00 | ||
| 20260503055105 | 39 | 295 | 1.0 | 5.0 | 0.00 | 0.00 | 0.00 | ||
| 20260503054600 | 38 | 267 | 4.0 | 6.0 | 0.00 | 0.00 | 0.00 | ||
| 20260503054055 | 37 | 278 | 5.0 | 4.0 | 0.00 | 0.00 | 0.00 | ||
| 20260503053550 | 36 | 231 | 4.0 | 2.0 | 0.00 | 0.00 | 0.00 | ||
| 20260503053045 | 35 | 187 | 2.0 | 0.0 | 0.00 | 0.00 | 0.00 | ||
| 20260503052536 | 36 | 179 | 0.0 | 0.0 | 0.00 | 0.00 | 0.00 | ||
| 20260503052030 | 36 | 179 | 0.0 | 0.0 | 0.00 | 0.00 | 0.00 | ||
| 20260503051525 | 36 | 179 | 0.0 | 0.0 | 0.00 | 0.00 | 0.00 | ||
| 20260503051020 | 36 | 179 | 0.0 | 0.0 | 0.00 | 0.00 | 0.00 | ||
| 20260503050515 | 37 | 179 | 0.0 | 0.0 | 0.00 | 0.00 | 0.00 | ||
| 20260503045502 | 39 | 179 | 0.0 | 3.0 | 0.00 | 0.00 | 0.00 | ||
| 20260503044957 | 39 | 235 | 2.0 | 5.0 | 0.00 | 0.00 | 0.00 | ||
| 20260503044452 | 38 | 262 | 0.0 | 7.0 | 0.00 | 0.00 | 0.00 | ||
| 20260503043947 | 39 | 195 | 0.0 | 3.0 | 0.00 | 0.00 | 0.00 | ||
| 20260503043442 | 39 | 271 | 0.0 | 0.0 | 0.00 | 0.00 | 0.00 | ||
| 20260503042937 | 37 | 271 | 0.0 | 0.0 | 0.00 | 0.00 | 0.00 | ||
| 20260503042429 | 39 | 271 | 0.0 | 0.0 | 0.00 | 0.00 | 0.00 | ||
| 20260503041924 | 39 | 271 | 0.0 | 0.0 | 0.00 | 0.00 | 0.00 | ||
| 20260503041419 | 40 | 271 | 0.0 | 0.0 | 0.00 | 0.00 | 0.00 | ||
| 20260503040914 | 40 | 271 | 0.0 | 2.0 | 0.00 | 0.00 | 0.00 | ||
| 20260503040409 | 40 | 271 | 0.0 | 2.0 | 0.00 | 0.00 | 0.00 | ||
| 20260503035904 | 40 | 278 | 0.0 | 1.0 | 0.00 | 0.00 | 0.00 | ||
| 20260503034851 | 41 | 346 | 0.0 | 3.0 | 0.00 | 0.00 | 0.00 | ||
| 20260503034346 | 42 | 284 | 0.0 | 0.0 | 0.00 | 0.00 | 0.00 | ||
| 20260503033841 | 41 | 284 | 0.0 | 0.0 | 0.00 | 0.00 | 0.00 | ||
| 20260503033336 | 42 | 284 | 0.0 | 1.0 | 0.00 | 0.00 | 0.00 | ||
| 20260503032831 | 42 | 283 | 1.0 | 2.0 | 0.00 | 0.00 | 0.00 | ||
| 20260503032323 | 41 | 318 | 1.0 | 1.0 | 0.00 | 0.00 | 0.00 | ||
| 20260503031818 | 42 | 312 | 0.0 | 4.0 | 0.00 | 0.00 | 0.00 | ||
| 20260503031313 | 44 | 293 | 0.0 | 3.0 | 0.00 | 0.00 | 0.00 | ||
| 20260503030808 | 44 | 308 | 0.0 | 5.0 | 0.00 | 0.00 | 0.00 | ||
| 20260503030303 | 46 | 37 | 1.0 | 5.0 | 0.00 | 0.00 | 0.00 | ||
| 20260503025758 | 44 | 30 | 1.0 | 7.0 | 0.00 | 0.00 | 0.00 | ||
| 20260503025250 | 44 | 309 | 1.0 | 7.0 | 0.00 | 0.00 | 0.00 | ||
| 20260503024745 | 45 | 353 | 3.0 | 5.0 | 0.00 | 0.00 | 0.00 | ||
| 20260503024240 | 46 | 27 | 3.0 | 3.0 | 0.00 | 0.00 | 0.00 | ||
| 20260503023735 | 46 | 290 | 0.0 | 5.0 | 0.00 | 0.00 | 0.00 | ||
| 20260503023230 | 46 | 6 | 0.0 | 10.0 | 0.00 | 0.00 | 0.00 | ||
| 20260503022218 | 47 | 305 | 1.0 | 8.0 | 0.00 | 0.00 | 0.00 |